Time,TemperatureF,DewpointF,PressureIn,WindDirection,WindDirectionDegrees,WindSpeedMPH,WindSpeedGustMPH,Humidity,HourlyPrecipIn,Conditions,Clouds,dailyrainin,SoftwareType,DateUTC
2013-01-18 00:00:00,26.2,25.0,30.32,SE,145,2.0,2.0,95,0.00,,,0.00,Wunderground v.1.15,2013-01-18 06:00:00,
2013-01-18 00:10:00,26.4,25.2,30.32,SE,125,1.0,1.0,95,0.00,,,0.00,Wunderground v.1.15,2013-01-18 06:10:00,
2013-01-18 00:15:00,26.6,25.4,30.32,SE,129,0.0,1.0,95,0.00,,,0.00,Wunderground v.1.15,2013-01-18 06:15:00,
2013-01-18 00:25:00,26.7,25.5,30.31,East,91,0.0,0.0,95,0.00,,,0.00,Wunderground v.1.15,2013-01-18 06:25:00,
2013-01-18 00:35:00,26.7,25.5,30.31,East,93,0.0,0.0,95,0.00,,,0.00,Wunderground v.1.15,2013-01-18 06:35:00,
2013-01-18 00:45:00,26.1,24.9,30.31,ESE,108,0.0,0.0,95,0.00,,,0.00,Wunderground v.1.15,2013-01-18 06:45:00,
2013-01-18 00:50:00,26.0,24.8,30.31,SE,131,0.0,0.0,95,0.00,,,0.00,Wunderground v.1.15,2013-01-18 06:50:00,
2013-01-18 01:00:00,26.0,24.8,30.30,ESE,118,0.0,0.0,95,0.00,,,0.00,Wunderground v.1.15,2013-01-18 07:00:00,
2013-01-18 01:10:00,26.0,24.8,30.30,SE,135,0.0,0.0,95,0.00,,,0.00,Wunderground v.1.15,2013-01-18 07:10:00,
2013-01-18 01:15:00,26.1,24.9,30.30,SE,127,0.0,0.0,95,0.00,,,0.00,Wunderground v.1.15,2013-01-18 07:15:00,
2013-01-18 01:20:00,25.8,24.6,30.30,SE,127,0.0,0.0,95,0.00,,,0.00,Wunderground v.1.15,2013-01-18 07:20:00,
2013-01-18 01:30:00,25.1,23.9,30.29,SE,134,0.0,0.0,95,0.00,,,0.00,Wunderground v.1.15,2013-01-18 07:30:00,
2013-01-18 01:40:00,25.0,23.8,30.29,SE,134,0.0,0.0,95,0.00,,,0.00,Wunderground v.1.15,2013-01-18 07:40:00,
2013-01-18 01:50:00,24.8,23.6,30.29,SSE,150,0.0,0.0,95,0.00,,,0.00,Wunderground v.1.15,2013-01-18 07:50:00,
2013-01-18 02:00:00,24.3,23.1,30.29,SSE,148,0.0,0.0,95,0.00,,,0.00,Wunderground v.1.15,2013-01-18 08:00:00,
2013-01-18 02:10:00,24.2,23.0,30.28,SSE,158,0.0,2.0,95,0.00,,,0.00,Wunderground v.1.15,2013-01-18 08:10:00,
2013-01-18 02:20:00,25.2,24.0,30.27,SSE,167,3.0,3.0,95,0.00,,,0.00,Wunderground v.1.15,2013-01-18 08:20:00,
2013-01-18 02:30:00,24.7,23.5,30.27,South,187,3.0,3.0,95,0.00,,,0.00,Wunderground v.1.15,2013-01-18 08:30:00,
2013-01-18 02:35:00,24.6,23.4,30.26,SSW,192,3.0,3.0,95,0.00,,,0.00,Wunderground v.1.15,2013-01-18 08:35:00,
2013-01-18 02:45:00,25.7,24.5,30.25,SSE,159,3.0,3.0,95,0.00,,,0.00,Wunderground v.1.15,2013-01-18 08:45:00,
2013-01-18 02:55:00,26.5,25.5,30.25,South,174,3.0,4.0,96,0.00,,,0.00,Wunderground v.1.15,2013-01-18 08:55:00,
2013-01-18 03:00:00,26.0,24.8,30.25,South,172,2.0,2.0,95,0.00,,,0.00,Wunderground v.1.15,2013-01-18 09:00:00,
2013-01-18 03:05:00,25.5,24.3,30.25,South,180,2.0,2.0,95,0.00,,,0.00,Wunderground v.1.15,2013-01-18 09:05:00,
2013-01-18 03:15:00,25.3,24.1,30.25,SSE,165,2.0,4.0,95,0.00,,,0.00,Wunderground v.1.15,2013-01-18 09:15:00,
2013-01-18 03:25:00,25.3,24.1,30.24,SSW,210,3.0,3.0,95,0.00,,,0.00,Wunderground v.1.15,2013-01-18 09:25:00,
2013-01-18 03:35:00,27.5,26.5,30.23,SW,217,6.0,6.0,96,0.00,,,0.00,Wunderground v.1.15,2013-01-18 09:35:00,
2013-01-18 03:45:00,28.4,27.4,30.22,SSW,203,7.0,7.0,96,0.00,,,0.00,Wunderground v.1.15,2013-01-18 09:45:00,
2013-01-18 03:55:00,29.1,27.6,30.21,SSW,197,7.0,9.0,94,0.00,,,0.00,Wunderground v.1.15,2013-01-18 09:55:00,
2013-01-18 04:00:00,29.4,27.6,30.21,SW,225,7.0,7.0,93,0.00,,,0.00,Wunderground v.1.15,2013-01-18 10:00:00,
2013-01-18 04:10:00,30.9,28.6,30.20,SSW,210,10.0,10.0,91,0.00,,,0.00,Wunderground v.1.15,2013-01-18 10:10:00,
2013-01-18 04:20:00,31.3,28.4,30.19,SW,225,10.0,11.0,89,0.00,,,0.00,Wunderground v.1.15,2013-01-18 10:20:00,
2013-01-18 04:30:00,31.5,28.4,30.19,SW,221,10.0,10.0,88,0.00,,,0.00,Wunderground v.1.15,2013-01-18 10:30:00,
2013-01-18 04:40:00,31.2,28.1,30.18,SSW,208,9.0,9.0,88,0.00,,,0.00,Wunderground v.1.15,2013-01-18 10:40:00,
2013-01-18 04:50:00,31.1,28.0,30.18,SSW,203,9.0,9.0,88,0.00,,,0.00,Wunderground v.1.15,2013-01-18 10:50:00,
2013-01-18 05:00:00,31.2,27.8,30.17,SSW,204,8.0,8.0,87,0.00,,,0.00,Wunderground v.1.15,2013-01-18 11:00:00,
2013-01-18 05:10:00,30.8,27.4,30.17,SSW,200,7.0,7.0,87,0.00,,,0.00,Wunderground v.1.15,2013-01-18 11:10:00,
2013-01-18 05:15:00,30.5,27.1,30.17,South,177,7.0,7.0,87,0.00,,,0.00,Wunderground v.1.15,2013-01-18 11:15:00,
2013-01-18 05:25:00,30.3,27.2,30.17,SSW,194,5.0,6.0,88,0.00,,,0.00,Wunderground v.1.15,2013-01-18 11:25:00,
2013-01-18 05:35:00,30.6,27.2,30.17,South,172,4.0,5.0,87,0.00,,,0.00,Wunderground v.1.15,2013-01-18 11:35:00,
2013-01-18 05:45:00,31.3,27.6,30.16,SSW,204,7.0,7.0,86,0.00,,,0.00,Wunderground v.1.15,2013-01-18 11:45:00,
2013-01-18 05:55:00,31.1,27.4,30.15,SSW,200,7.0,9.0,86,0.00,,,0.00,Wunderground v.1.15,2013-01-18 11:55:00,
2013-01-18 06:00:00,31.2,27.5,30.15,SSW,203,8.0,8.0,86,0.00,,,0.00,Wunderground v.1.15,2013-01-18 12:00:00,
2013-01-18 06:10:00,31.2,27.5,30.14,SSW,199,8.0,8.0,86,0.00,,,0.00,Wunderground v.1.15,2013-01-18 12:10:00,
2013-01-18 06:20:00,31.1,27.4,30.13,SSW,198,7.0,7.0,86,0.00,,,0.00,Wunderground v.1.15,2013-01-18 12:20:00,
2013-01-18 06:30:00,31.6,27.9,30.13,SSW,210,8.0,8.0,86,0.00,,,0.00,Wunderground v.1.15,2013-01-18 12:30:00,
2013-01-18 06:40:00,31.8,27.8,30.13,SSW,204,7.0,7.0,85,0.00,,,0.00,Wunderground v.1.15,2013-01-18 12:40:00,
2013-01-18 06:50:00,32.3,28.3,30.12,SSW,211,8.0,8.0,85,0.00,,,0.00,Wunderground v.1.15,2013-01-18 12:50:00,
2013-01-18 07:00:00,32.9,28.6,30.10,SW,217,11.0,13.0,84,0.00,,,0.00,Wunderground v.1.15,2013-01-18 13:00:00,
2013-01-18 07:10:00,33.2,28.6,30.10,SW,221,11.0,11.0,83,0.00,,,0.00,Wunderground v.1.15,2013-01-18 13:10:00,
2013-01-18 07:20:00,33.5,28.9,30.10,SSW,212,10.0,11.0,83,0.00,,,0.00,Wunderground v.1.15,2013-01-18 13:20:00,
2013-01-18 07:25:00,33.8,28.9,30.10,SW,215,11.0,11.0,82,0.00,,,0.00,Wunderground v.1.15,2013-01-18 13:25:00,
2013-01-18 07:35:00,34.0,29.1,30.09,SSW,198,11.0,13.0,82,0.00,,,0.00,Wunderground v.1.15,2013-01-18 13:35:00,
2013-01-18 07:45:00,34.0,29.1,30.09,SW,221,10.0,10.0,82,0.00,,,0.00,Wunderground v.1.15,2013-01-18 13:45:00,
2013-01-18 07:50:00,34.0,29.1,30.09,SSW,212,10.0,11.0,82,0.00,,,0.00,Wunderground v.1.15,2013-01-18 13:50:00,
2013-01-18 08:00:00,34.2,29.0,30.09,SW,226,10.0,10.0,81,0.00,,,0.00,Wunderground v.1.15,2013-01-18 14:00:00,
2013-01-18 08:10:00,34.5,29.3,30.10,SW,236,9.0,10.0,81,0.00,,,0.00,Wunderground v.1.15,2013-01-18 14:10:00,
2013-01-18 08:20:00,34.7,29.5,30.10,SW,217,10.0,10.0,81,0.00,,,0.00,Wunderground v.1.15,2013-01-18 14:20:00,
2013-01-18 08:25:00,34.9,29.4,30.10,SW,236,11.0,15.0,80,0.00,,,0.00,Wunderground v.1.15,2013-01-18 14:25:00,
2013-01-18 08:35:00,35.1,29.6,30.10,WSW,245,11.0,11.0,80,0.00,,,0.00,Wunderground v.1.15,2013-01-18 14:35:00,
2013-01-18 08:40:00,35.3,29.7,30.10,SW,236,11.0,14.0,80,0.00,,,0.00,Wunderground v.1.15,2013-01-18 14:40:00,
2013-01-18 08:50:00,35.7,30.1,30.09,SSW,212,11.0,13.0,80,0.00,,,0.00,Wunderground v.1.15,2013-01-18 14:50:00,
2013-01-18 09:00:00,36.1,30.2,30.10,SW,236,10.0,14.0,79,0.00,,,0.00,Wunderground v.1.15,2013-01-18 15:00:00,
2013-01-18 09:10:00,36.4,30.5,30.10,SW,228,10.0,12.0,79,0.00,,,0.00,Wunderground v.1.15,2013-01-18 15:10:00,
2013-01-18 09:20:00,36.8,30.9,30.09,SW,232,11.0,14.0,79,0.00,,,0.00,Wunderground v.1.15,2013-01-18 15:20:00,
2013-01-18 09:25:00,37.0,31.1,30.09,SW,235,12.0,14.0,79,0.00,,,0.00,Wunderground v.1.15,2013-01-18 15:25:00,
2013-01-18 09:34:00,37.4,31.2,30.08,SW,228,13.0,14.0,78,0.00,,,0.00,Wunderground v.1.15,2013-01-18 15:34:00,
2013-01-18 09:40:00,37.7,31.5,30.08,SW,224,14.0,15.0,78,0.00,,,0.00,Wunderground v.1.15,2013-01-18 15:40:00,
2013-01-18 09:50:00,38.3,31.7,30.08,SSW,206,14.0,14.0,77,0.00,,,0.00,Wunderground v.1.15,2013-01-18 15:50:00,
2013-01-18 10:00:00,38.8,32.2,30.07,SW,229,14.0,14.0,77,0.00,,,0.00,Wunderground v.1.15,2013-01-18 16:00:00,
2013-01-18 10:10:00,39.3,32.4,30.07,SW,225,15.0,17.0,76,0.00,,,0.00,Wunderground v.1.15,2013-01-18 16:10:00,
2013-01-18 10:20:00,39.9,32.9,30.07,SW,222,13.0,16.0,76,0.00,,,0.00,Wunderground v.1.15,2013-01-18 16:20:00,
2013-01-18 10:30:00,40.4,32.8,30.07,SW,225,13.0,13.0,74,0.00,,,0.00,Wunderground v.1.15,2013-01-18 16:30:00,
2013-01-18 10:40:00,40.8,33.2,30.07,WSW,256,10.0,10.0,74,0.00,,,0.00,Wunderground v.1.15,2013-01-18 16:40:00,
2013-01-18 10:50:00,41.5,33.5,30.08,West,260,8.0,10.0,73,0.00,,,0.00,Wunderground v.1.15,2013-01-18 16:50:00,
2013-01-18 11:05:00,41.9,33.5,30.06,SW,214,9.0,12.0,72,0.00,,,0.00,Wunderground v.1.15,2013-01-18 17:05:00,
2013-01-18 11:15:00,42.0,33.3,30.05,WSW,246,12.0,12.0,71,0.00,,,0.00,Wunderground v.1.15,2013-01-18 17:15:00,
2013-01-18 11:25:00,42.4,33.7,30.05,SW,227,10.0,12.0,71,0.00,,,0.00,Wunderground v.1.15,2013-01-18 17:25:00,
2013-01-18 11:35:00,42.9,34.1,30.04,WSW,253,9.0,10.0,71,0.00,,,0.00,Wunderground v.1.15,2013-01-18 17:35:00,
2013-01-18 11:45:00,43.1,34.0,30.04,SW,229,11.0,11.0,70,0.00,,,0.00,Wunderground v.1.15,2013-01-18 17:45:00,
2013-01-18 11:55:00,43.6,34.8,30.03,West,267,9.0,10.0,71,0.00,,,0.00,Wunderground v.1.15,2013-01-18 17:55:00,
2013-01-18 12:00:00,44.1,34.6,30.03,West,277,9.0,13.0,69,0.00,,,0.00,Wunderground v.1.15,2013-01-18 18:00:00,
2013-01-18 12:10:00,44.4,34.1,30.02,WSW,255,9.0,13.0,67,0.00,,,0.00,Wunderground v.1.15,2013-01-18 18:10:00,
2013-01-18 12:20:00,44.4,34.5,30.02,WSW,250,9.0,10.0,68,0.00,,,0.00,Wunderground v.1.15,2013-01-18 18:20:00,
2013-01-18 12:25:00,44.5,34.6,30.01,West,260,9.0,13.0,68,0.00,,,0.00,Wunderground v.1.15,2013-01-18 18:25:00,
2013-01-18 12:35:00,44.7,34.4,30.01,WSW,252,11.0,12.0,67,0.00,,,0.00,Wunderground v.1.15,2013-01-18 18:35:00,
2013-01-18 12:40:00,44.7,34.4,30.00,WSW,243,10.0,12.0,67,0.00,,,0.00,Wunderground v.1.15,2013-01-18 18:40:00,
2013-01-18 12:50:00,45.0,33.9,30.00,WSW,245,11.0,16.0,65,0.00,,,0.00,Wunderground v.1.15,2013-01-18 18:50:00,
2013-01-18 13:00:00,45.6,34.9,29.99,WSW,245,10.0,10.0,66,0.00,,,0.00,Wunderground v.1.15,2013-01-18 19:00:00,
2013-01-18 13:10:00,45.9,34.4,29.99,WSW,250,10.0,10.0,64,0.00,,,0.00,Wunderground v.1.15,2013-01-18 19:10:00,
2013-01-18 13:19:00,46.4,34.5,29.98,WSW,242,10.0,11.0,63,0.00,,,0.00,Wunderground v.1.15,2013-01-18 19:19:00,
2013-01-18 13:25:00,46.6,34.3,29.98,WSW,258,12.0,13.0,62,0.00,,,0.00,Wunderground v.1.15,2013-01-18 19:25:00,
2013-01-18 13:35:00,46.8,34.9,29.99,WSW,245,12.0,13.0,63,0.00,,,0.00,Wunderground v.1.15,2013-01-18 19:35:00,
2013-01-18 13:45:00,47.2,35.2,29.98,WSW,257,10.0,12.0,63,0.00,,,0.00,Wunderground v.1.15,2013-01-18 19:45:00,
2013-01-18 13:55:00,47.5,35.1,29.98,WSW,257,10.0,13.0,62,0.00,,,0.00,Wunderground v.1.15,2013-01-18 19:55:00,
2013-01-18 14:00:00,47.5,35.1,29.98,West,274,11.0,13.0,62,0.00,,,0.00,Wunderground v.1.15,2013-01-18 20:00:00,
2013-01-18 14:10:00,47.7,35.3,29.98,West,262,11.0,11.0,62,0.00,,,0.00,Wunderground v.1.15,2013-01-18 20:10:00,
2013-01-18 14:15:00,47.6,35.2,29.98,WSW,256,10.0,11.0,62,0.00,,,0.00,Wunderground v.1.15,2013-01-18 20:15:00,
2013-01-18 14:25:00,47.7,34.9,29.97,WSW,242,10.0,13.0,61,0.00,,,0.00,Wunderground v.1.15,2013-01-18 20:25:00,
2013-01-18 14:35:00,47.8,35.4,29.97,SW,219,10.0,13.0,62,0.00,,,0.00,Wunderground v.1.15,2013-01-18 20:35:00,
2013-01-18 14:45:00,47.9,35.9,29.97,WSW,252,10.0,11.0,63,0.00,,,0.00,Wunderground v.1.15,2013-01-18 20:45:00,
2013-01-18 14:55:00,48.1,36.1,29.97,WSW,245,8.0,12.0,63,0.00,,,0.00,Wunderground v.1.15,2013-01-18 20:55:00,
2013-01-18 15:00:00,48.0,36.0,29.96,WSW,256,9.0,9.0,63,0.00,,,0.00,Wunderground v.1.15,2013-01-18 21:00:00,
2013-01-18 15:10:00,48.1,35.7,29.96,WSW,252,9.0,9.0,62,0.00,,,0.00,Wunderground v.1.15,2013-01-18 21:10:00,
2013-01-18 15:20:00,48.1,35.7,29.95,SW,214,9.0,11.0,62,0.00,,,0.00,Wunderground v.1.15,2013-01-18 21:20:00,
2013-01-18 15:25:00,48.3,35.5,29.94,SW,222,10.0,14.0,61,0.00,,,0.00,Wunderground v.1.15,2013-01-18 21:25:00,
2013-01-18 15:30:00,48.1,35.7,29.95,SSW,211,12.0,12.0,62,0.00,,,0.00,Wunderground v.1.15,2013-01-18 21:30:00,
2013-01-18 15:40:00,47.9,35.9,29.97,WSW,252,9.0,9.0,63,0.00,,,0.00,Wunderground v.1.15,2013-01-18 21:40:00,
2013-01-18 15:50:00,47.8,35.8,29.96,West,279,9.0,9.0,63,0.00,,,0.00,Wunderground v.1.15,2013-01-18 21:50:00,
2013-01-18 16:00:00,47.8,36.2,29.96,West,271,7.0,7.0,64,0.00,,,0.00,Wunderground v.1.15,2013-01-18 22:00:00,
2013-01-18 16:10:00,47.7,35.7,29.96,WSW,247,6.0,9.0,63,0.00,,,0.00,Wunderground v.1.15,2013-01-18 22:10:00,
2013-01-18 16:20:00,47.3,35.7,29.96,West,277,6.0,8.0,64,0.00,,,0.00,Wunderground v.1.15,2013-01-18 22:20:00,
2013-01-18 16:30:00,46.8,35.3,29.97,West,269,6.0,6.0,64,0.00,,,0.00,Wunderground v.1.15,2013-01-18 22:30:00,
2013-01-18 16:40:00,46.4,35.3,29.96,WSW,256,4.0,5.0,65,0.00,,,0.00,Wunderground v.1.15,2013-01-18 22:40:00,
2013-01-18 16:45:00,46.3,35.2,29.96,WSW,245,5.0,5.0,65,0.00,,,0.00,Wunderground v.1.15,2013-01-18 22:45:00,
2013-01-18 16:55:00,45.2,34.9,29.97,WSW,240,4.0,5.0,67,0.00,,,0.00,Wunderground v.1.15,2013-01-18 22:55:00,
2013-01-18 17:00:00,44.9,34.6,29.97,WSW,253,3.0,3.0,67,0.00,,,0.00,Wunderground v.1.15,2013-01-18 23:00:00,
2013-01-18 17:05:00,44.6,34.3,29.97,WSW,256,3.0,3.0,67,0.00,,,0.00,Wunderground v.1.15,2013-01-18 23:05:00,
2013-01-18 17:15:00,43.4,33.5,29.97,West,273,2.0,2.0,68,0.00,,,0.00,Wunderground v.1.15,2013-01-18 23:15:00,
2013-01-18 17:20:00,42.5,33.0,29.97,West,265,2.0,2.0,69,0.00,,,0.00,Wunderground v.1.15,2013-01-18 23:20:00,
2013-01-18 17:30:00,41.3,33.0,29.98,SW,235,1.0,2.0,72,0.00,,,0.00,Wunderground v.1.15,2013-01-18 23:30:00,
2013-01-18 17:35:00,41.1,33.1,29.97,SW,225,2.0,6.0,73,0.00,,,0.00,Wunderground v.1.15,2013-01-18 23:35:00,
2013-01-18 17:45:00,41.2,33.2,29.97,SW,217,3.0,4.0,73,0.00,,,0.00,Wunderground v.1.15,2013-01-18 23:45:00,
2013-01-18 17:50:00,41.4,33.4,29.98,WSW,238,4.0,5.0,73,0.00,,,0.00,Wunderground v.1.15,2013-01-18 23:50:00,
2013-01-18 18:00:00,40.6,32.6,29.98,WSW,248,3.0,4.0,73,0.00,,,0.00,Wunderground v.1.15,2013-01-19 00:00:00,
2013-01-18 18:10:00,40.3,32.7,29.98,SW,235,3.0,3.0,74,0.00,,,0.00,Wunderground v.1.15,2013-01-19 00:10:00,
2013-01-18 18:15:00,40.6,33.0,29.97,SW,225,3.0,3.0,74,0.00,,,0.00,Wunderground v.1.15,2013-01-19 00:15:00,
2013-01-18 18:25:00,40.4,32.4,29.98,South,180,3.0,3.0,73,0.00,,,0.00,Wunderground v.1.15,2013-01-19 00:25:00,
2013-01-18 18:35:00,40.5,32.9,29.97,SW,224,4.0,5.0,74,0.00,,,0.00,Wunderground v.1.15,2013-01-19 00:35:00,
2013-01-18 18:45:00,40.7,32.7,29.98,WSW,240,4.0,4.0,73,0.00,,,0.00,Wunderground v.1.15,2013-01-19 00:45:00,
2013-01-18 18:55:00,40.4,32.4,29.98,SW,235,5.0,5.0,73,0.00,,,0.00,Wunderground v.1.15,2013-01-19 00:55:00,
2013-01-18 19:00:00,40.2,32.2,29.98,SW,232,5.0,6.0,73,0.00,,,0.00,Wunderground v.1.15,2013-01-19 01:00:00,
2013-01-18 19:10:00,39.8,32.2,29.98,SW,225,4.0,4.0,74,0.00,,,0.00,Wunderground v.1.15,2013-01-19 01:10:00,
2013-01-18 19:20:00,39.4,31.8,29.98,SSW,209,4.0,4.0,74,0.00,,,0.00,Wunderground v.1.15,2013-01-19 01:20:00,
2013-01-18 19:30:00,39.3,31.7,29.98,SW,219,5.0,5.0,74,0.00,,,0.00,Wunderground v.1.15,2013-01-19 01:30:00,
2013-01-18 19:40:00,39.5,31.6,29.98,SW,231,4.0,4.0,73,0.00,,,0.00,Wunderground v.1.15,2013-01-19 01:40:00,
2013-01-18 19:45:00,39.5,31.6,29.98,SW,222,4.0,4.0,73,0.00,,,0.00,Wunderground v.1.15,2013-01-19 01:45:00,
2013-01-18 19:55:00,39.4,31.5,29.97,WSW,238,4.0,4.0,73,0.00,,,0.00,Wunderground v.1.15,2013-01-19 01:55:00,
2013-01-18 20:00:00,39.5,31.6,29.97,SW,226,4.0,4.0,73,0.00,,,0.00,Wunderground v.1.15,2013-01-19 02:00:00,
2013-01-18 20:10:00,39.4,31.5,29.97,SW,229,3.0,3.0,73,0.00,,,0.00,Wunderground v.1.15,2013-01-19 02:10:00,
2013-01-18 20:20:00,38.9,31.0,29.97,West,262,2.0,2.0,73,0.00,,,0.00,Wunderground v.1.15,2013-01-19 02:20:00,
2013-01-18 20:30:00,38.1,30.9,29.96,West,273,1.0,2.0,75,0.00,,,0.00,Wunderground v.1.15,2013-01-19 02:30:00,
2013-01-18 20:40:00,37.4,30.5,29.96,West,259,3.0,3.0,76,0.00,,,0.00,Wunderground v.1.15,2013-01-19 02:40:00,
2013-01-18 20:50:00,37.1,30.6,29.95,West,262,2.0,2.0,77,0.00,,,0.00,Wunderground v.1.15,2013-01-19 02:50:00,
2013-01-18 20:55:00,36.7,30.5,29.95,West,259,2.0,3.0,78,0.00,,,0.00,Wunderground v.1.15,2013-01-19 02:55:00,
2013-01-18 21:00:00,36.8,30.6,29.95,SW,228,2.0,2.0,78,0.00,,,0.00,Wunderground v.1.15,2013-01-19 03:00:00,
2013-01-18 21:10:00,37.6,31.0,29.95,SW,226,4.0,4.0,77,0.00,,,0.00,Wunderground v.1.15,2013-01-19 03:10:00,
2013-01-18 21:20:00,37.7,30.8,29.94,SW,235,3.0,3.0,76,0.00,,,0.00,Wunderground v.1.15,2013-01-19 03:20:00,
2013-01-18 21:30:00,37.2,30.3,29.94,SW,235,2.0,3.0,76,0.00,,,0.00,Wunderground v.1.15,2013-01-19 03:30:00,
2013-01-18 21:40:00,36.9,30.7,29.94,WSW,250,2.0,2.0,78,0.00,,,0.00,Wunderground v.1.15,2013-01-19 03:40:00,
2013-01-18 21:50:00,36.4,30.2,29.94,WSW,244,1.0,1.0,78,0.00,,,0.00,Wunderground v.1.15,2013-01-19 03:50:00,
2013-01-18 21:55:00,36.3,30.4,29.94,WSW,244,1.0,1.0,79,0.00,,,0.00,Wunderground v.1.15,2013-01-19 03:55:00,
2013-01-18 22:00:00,36.1,29.9,29.94,WSW,245,1.0,1.0,78,0.00,,,0.00,Wunderground v.1.15,2013-01-19 04:00:00,
2013-01-18 22:10:00,35.5,29.6,29.94,WSW,238,0.0,1.0,79,0.00,,,0.00,Wunderground v.1.15,2013-01-19 04:10:00,
2013-01-18 22:15:00,35.5,29.9,29.94,WSW,245,1.0,2.0,80,0.00,,,0.00,Wunderground v.1.15,2013-01-19 04:15:00,
2013-01-18 22:25:00,35.3,29.7,29.94,West,266,1.0,3.0,80,0.00,,,0.00,Wunderground v.1.15,2013-01-19 04:25:00,
2013-01-18 22:30:00,35.4,29.8,29.93,SW,221,1.0,1.0,80,0.00,,,0.00,Wunderground v.1.15,2013-01-19 04:30:00,
2013-01-18 22:40:00,35.6,29.7,29.93,WSW,245,2.0,4.0,79,0.00,,,0.00,Wunderground v.1.15,2013-01-19 04:40:00,
2013-01-18 22:50:00,35.8,29.9,29.93,WSW,245,2.0,2.0,79,0.00,,,0.00,Wunderground v.1.15,2013-01-19 04:50:00,
2013-01-18 23:05:00,35.2,29.6,29.92,West,262,1.0,1.0,80,0.00,,,0.00,Wunderground v.1.15,2013-01-19 05:05:00,
2013-01-18 23:10:00,35.1,29.6,29.92,West,264,0.0,0.0,80,0.00,,,0.00,Wunderground v.1.15,2013-01-19 05:10:00,
2013-01-18 23:15:00,34.8,29.3,29.92,WSW,244,0.0,1.0,80,0.00,,,0.00,Wunderground v.1.15,2013-01-19 05:15:00,
2013-01-18 23:20:00,34.5,29.0,29.92,WSW,244,1.0,1.0,80,0.00,,,0.00,Wunderground v.1.15,2013-01-19 05:20:00,
2013-01-18 23:30:00,34.4,29.2,29.92,WSW,252,1.0,1.0,81,0.00,,,0.00,Wunderground v.1.15,2013-01-19 05:30:00,
2013-01-18 23:40:00,33.9,28.7,29.91,WSW,251,0.0,0.0,81,0.00,,,0.00,Wunderground v.1.15,2013-01-19 05:40:00,
2013-01-18 23:50:00,33.3,28.4,29.91,SSE,163,1.0,2.0,82,0.00,,,0.00,Wunderground v.1.15,2013-01-19 05:50:00,